Location: Bletchingley
(51.2333°N, 0.1000°W)
Time: 05:17:06
(UTC+00:00)

SL-08 RB Rocket - Pass Details

Date: 18 September 2020
Orbit: 646 x 685 km, 97.8° (Epoch: 20 October)

Event Time Altitude Azimuth Distance (km) Brightness Sun altitude
Exits shadow 19:32:45 - 169° (S) 2,898 6.7 -13.9°
Reaches altitude 10° 19:34:42 10° 171° (S) 2,102 6.0 -14.2°
Maximum altitude 19:39:18 74° 257° (WSW) 700 3.9 -14.9°
Drops below altitude 10° 19:43:53 10° 343° (NNW) 2,095 6.8 -15.6°
Sets 19:46:07 0° 345° (NNW) 3,006 7.7 -15.9°
